This demonstration page uses our WeatherBlox Daily Observations layout. Learn more.

Left ArrowRight Arrow

39.01783, -85.05884

Hourly Observations for August 24, 2015

Temp ( °F °C ) Dew Point ( °F °C ) Humidity (%) Winds ( mph kmh ) Pressure ( in mb ) Visibility ( mi km ) Precip ( " mm )
12:52 am 00:52 Mostly Cloudy 71 21.7 61 16.1 71 71 NNW 8 13 29.93 1014 10 16.0934 N/A
1:52 am 01:52 Mostly Cloudy 69 20.6 59 15 70 70 NW 12 19 29.95 1014 10 16.0934 N/A
2:52 am 02:52 Mostly Clear 66 18.9 58 14.4 75 75 NW 8 13 29.94 1014 10 16.0934 N/A
3:52 am 03:52 Clear 63 17.2 58 14.4 84 84 WNW 5 7 29.95 1014 10 16.0934 N/A
4:52 am 04:52 Clear 60 15.6 57 13.9 90 90 WSW 5 7 29.95 1014 10 16.0934 N/A
5:52 am 05:52 Clear 59 15 57 13.9 93 93 N N/A 29.96 1015 10 16.0934 N/A
6:52 am 06:52 Clear 59 15 56 13.3 90 90 N N/A 29.98 1015 10 16.0934 N/A
7:52 am 07:52 Sunny 59 15 56 13.3 90 90 W 3 6 30 1016 10 16.0934 N/A
8:52 am 08:52 Sunny 63 17.2 57 13.9 81 81 W 7 11 30.01 1016 10 16.0934 N/A
9:52 am 09:52 Sunny 68 20 55 12.8 63 63 W 9 15 30.01 1016 10 16.0934 N/A
10:52 am 10:52 Mostly Sunny 70 21.1 55 12.8 59 59 W 8 13 30.01 1016 10 16.0934 N/A
11:52 am 11:52 Mostly Sunny 72 22.2 52 11.1 50 50 WNW 12 19 30 1016 10 16.0934 N/A
12:52 pm 12:52 Mostly Sunny 72 22.2 51 10.6 48 48 VRB 7 11 29.99 1016 10 16.0934 N/A
1:52 pm 13:52 Mostly Sunny 73 22.8 50 10 44 44 WNW 7 11 29.98 1015 10 16.0934 N/A
2:52 pm 14:52 Mostly Sunny 75 23.9 50 10 41 41 W 10 17 29.98 1015 10 16.0934 N/A
3:52 pm 15:52 Mostly Sunny 76 24.4 51 10.6 42 42 WNW 17 28 29.96 1015 10 16.0934 N/A
4:52 pm 16:52 Mostly Sunny 75 23.9 50 10 41 41 W 10 17 29.95 1014 10 16.0934 N/A
5:52 pm 17:52 Mostly Sunny 76 24.4 52 11.1 43 43 W 13 20 29.95 1014 10 16.0934 N/A
6:52 pm 18:52 Mostly Sunny 74 23.3 50 10 43 43 W 13 20 29.95 1014 10 16.0934 N/A
7:52 pm 19:52 Mostly Sunny 70 21.1 52 11.1 53 53 W 8 13 29.95 1014 10 16.0934 N/A
8:52 pm 20:52 Clear 66 18.9 51 10.6 59 59 W 3 6 29.96 1015 10 16.0934 N/A
9:52 pm 21:52 Clear 65 18.3 52 11.1 63 63 W 5 7 29.97 1015 10 16.0934 N/A
10:52 pm 22:52 Clear 63 17.2 52 11.1 68 68 WSW 3 6 29.98 1015 10 16.0934 N/A
11:52 pm 23:52 Partly Cloudy 63 17.2 53 11.7 70 70 N N/A 29.98 1015 10 16.0934 N/A

Powered by AerisWeather